Location: Bonaustraße
(48.4603°N, 11.9280°E)
Time: 03:29:49
(UTC+01:00)

Envisat - Pass Details

Date: 28 January 2021
Orbit: 764 x 766 km, 98.1° (Epoch: 05 March)

Event Time Altitude Azimuth Distance (km) Brightness Sun altitude
Rises 18:20:10 0° 209° (SSW) 3,221 6.9 -12.5°
Reaches altitude 10° 18:23:11 10° 228° (SW) 2,301 6.5 -13.0°
Maximum altitude 18:26:37 18° 271° (W) 1,810 6.0 -13.6°
Drops below altitude 10° 18:30:04 10° 314° (NW) 2,313 6.0 -14.1°
Sets 18:33:08 0° 333° (NNW) 3,245 6.5 -14.6°
